Location: Bidart
(43.4376°N, 1.5913°W)
Time: 05:32:45
(UTC+00:00)

H-2A DEB - Pass Details

Date: 13 April 2026
Orbit: 584 x 592 km, 98.2° (Epoch: 15 May)

Event Time Altitude Azimuth Distance (km) Brightness Sun altitude
Exits shadow 01:27:15 17° 358° (N) 1,525 ? -34.5°
Drops below altitude 10° 01:28:16 10° 355° (N) 1,927 ? -34.4°
Sets 01:30:27 0° 351° (N) 2,834 ? -34.2°
